Weather History for Beaumont, TX

Change the Weather History Date:

Monday, October 29, 2012

  Actual Average Record
Temperature  
Mean Temperature 55 °F 67 °F  
Max Temperature 70 °F 77 °F 90 °F (1915)
Min Temperature 40 °F 57 °F 33 °F (1917)
Degree Days  
Heating Degree Days 10 2  
Month to date heating degree days 37 26  
Since 1 July heating degree days 37 27  
Cooling Degree Days 0 4  
Month to date cooling degree days 195 197  
Year to date cooling degree days 3069 2783  
Growing Degree Days 6 (Base 50)    
Moisture  
Dew Point 36 °F    
Average Humidity 56    
Maximum Humidity 86    
Minimum Humidity 25    
Precipitation  
Precipitation 0.00 in 0.17 in 3.18 in (2002)
Month to date precipitation 1.32 5.26  
Year to date precipitation 57.10 50.46  
Snow  
Snow 0.00 in 0.00 in 0.00 in ()
Month to date snowfall 0.0 0.0  
Since 1 July snowfall 0.0 0.0  
Since 1 September snowfall 0.0 0.0  
Snow Depth 0.00 in    
Sea Level Pressure  
Sea Level Pressure 30.21 in    
Wind  
Wind Speed 6 mph (North)    
Max Wind Speed 14 mph    
Max Gust Speed 20 mph    
Visibility 10 miles    
Events      
T = Trace of Precipitation, MM = Missing Value Source: NWS Daily Summary

Daily Weather History Graph

Daily Weather History Graph

Search for Another Location

Airport:

Trip Planner

Search our weather history database for the weather conditions in past years. The results will help you decide how hot, cold, wet, or windy it might be!

Date:

Astronomy

Oct. 29, 2012 Rise Set
Actual Time 7:27 AM CDT 6:31 PM CDT
Civil Twilight 7:03 AM CDT 6:55 PM CDT
Nautical Twilight 6:35 AM CDT 7:23 PM CDT
Astronomical Twilight 6:07 AM CDT 7:51 PM CDT
Moon 6:26 PM CDT (10/29) 7:17 AM CDT (10/29)
Length of Visible Light 11h 52m
Length of Day
11h 03m
Full, 100% of the Moon is Illuminated
Oct 29
Full
Oct 29
Full
Nov 6
Last Quarter
Nov 13
New
Nov 20
First Quarter

Hourly Weather History & Observations

Time (CDT) Temp. Windchill Dew Point Humidity Pressure Visibility Wind Dir Wind Speed Gust Speed Precip Events Conditions
12:53 AM 46.9 °F - 36.0 °F 66% 30.22 in 10.0 mi NNE 5.8 mph - N/A   Clear
1:53 AM 48.0 °F - 36.0 °F 63% 30.22 in 10.0 mi NNE 8.1 mph - N/A   Clear
2:53 AM 46.9 °F - 36.0 °F 66% 30.22 in 10.0 mi NNE 8.1 mph - N/A   Clear
3:53 AM 46.9 °F - 36.0 °F 66% 30.22 in 10.0 mi NNE 8.1 mph - N/A   Clear
4:53 AM 45.0 °F 41.8 °F 36.0 °F 71% 30.23 in 10.0 mi NNE 5.8 mph - N/A   Clear
5:53 AM 42.1 °F 40.2 °F 37.0 °F 82% 30.24 in 10.0 mi North 3.5 mph - N/A   Clear
6:53 AM 41.0 °F 39.0 °F 37.0 °F 86% 30.25 in 10.0 mi North 3.5 mph - N/A   Clear
7:53 AM 42.1 °F 40.2 °F 37.9 °F 85% 30.27 in 10.0 mi North 3.5 mph - N/A   Clear
8:53 AM 48.9 °F - 37.0 °F 64% 30.28 in 10.0 mi NNE 6.9 mph - N/A   Clear
9:53 AM 55.0 °F - 36.0 °F 49% 30.28 in 10.0 mi NNE 8.1 mph - 0.02 in   Clear
10:53 AM 59.0 °F - 33.1 °F 38% 30.27 in 10.0 mi NNE 10.4 mph - 0.01 in   Clear
11:53 AM 63.0 °F - 32.0 °F 31% 30.27 in 10.0 mi North 8.1 mph - N/A   Clear
12:53 PM 64.9 °F - 32.0 °F 29% 30.24 in 10.0 mi NNW 6.9 mph - N/A   Clear
1:53 PM 68.0 °F - 32.0 °F 26% 30.21 in 10.0 mi NNE 5.8 mph - N/A   Clear
2:53 PM 69.1 °F - 32.0 °F 25% 30.18 in 10.0 mi NNW 5.8 mph - N/A   Clear
3:53 PM 69.1 °F - 33.1 °F 26% 30.15 in 10.0 mi North 6.9 mph - N/A   Clear
4:53 PM 68.0 °F - 33.1 °F 27% 30.14 in 10.0 mi NNW 6.9 mph - N/A   Partly Cloudy
5:53 PM 66.0 °F - 36.0 °F 33% 30.14 in 10.0 mi North 4.6 mph - N/A   Clear
6:53 PM 57.0 °F - 37.9 °F 49% 30.15 in 10.0 mi North 4.6 mph - N/A   Clear
7:53 PM 54.0 °F - 39.0 °F 57% 30.16 in 10.0 mi Calm Calm - N/A   Clear
8:53 PM 52.0 °F - 39.9 °F 63% 30.17 in 10.0 mi North 4.6 mph - N/A   Clear
9:53 PM 48.0 °F - 42.1 °F 80% 30.17 in 10.0 mi NNE 5.8 mph - N/A   Clear
10:53 PM 48.0 °F - 39.0 °F 71% 30.17 in 10.0 mi NNE 3.5 mph - N/A   Clear
11:53 PM 50.0 °F - 39.9 °F 68% 30.16 in 10.0 mi ENE 4.6 mph - N/A   Clear